Starlink 5562

operational
NORAD ID: 56336 Int'l Des: 2023-058 Owner: SPXS Country: US Constellation: starlink
LEOCIRCULARRETROGRADESSO

关于 Starlink 5562

正在加载描述...

实时位置

正在加载3D地球...

即将过境

高度历史

Altitude vs Time

uPlot chart will show altitude changes over time

两行轨道根数

1 56336U 23058V 26036.46361141 -.00000252 00000-0 -15066-4 0 9997
2 56336 97.6044 38.6317 0003300 54.6316 305.5216 15.01260317153292
Epoch: Feb 5, 2026 • Age: 6 hours

当前状态

高度 591.2 km
速度 7.56 km/s
星下点 -72.53°S, 30.04°E
发射日期 Apr 27, 2023
运行时间 2.7 years
类型 internet

技术详情

分类 Payload
质量 300.00 kg
干质量 260.00 kg
总质量 300.00 kg
长度 0.20 m
直径 2.80 m
跨度 9.00 m
形状 Box + pan
制造商 SPXS
平台类型 Starlink
阶段状态 In Orbit
所有者/国家 SPXS/US

大型星座

Loading constellations...